Location: Silverdale
(47.6506°N, 122.6941°W)
Time: 19:45:54
(UTC+00:00)

Altair - Pass Details

Date: 03 October 2022
Orbit: 1501 x 1682 km, 47.2° (Epoch: 02 December)

Event Time Altitude Azimuth Distance (km) Brightness Sun altitude
Rises 20:38:49 0° 290° (WNW) 4,926 10.1 37.4°
Reaches altitude 10° 20:42:56 10° 276° (W) 3,945 9.8 37.3°
Maximum altitude 20:49:56 22° 232° (SW) 3,103 10.2 37.0°
Drops below altitude 10° 20:56:56 10° 187° (S) 3,917 10.9 36.6°
Sets 21:01:03 0° 173° (S) 4,883 10.9 36.4°
